Location: Street
(51.1247°N, 2.7429°W)
Time: 03:54:18
(UTC+00:00)

Transit 2A Rocket - Pass Details

Date: 28 November 2020
Orbit: 592 x 911 km, 66.7° (Epoch: 16 January)

Event Time Altitude Azimuth Distance (km) Brightness Sun altitude
Exits shadow 06:00:57 15° 328° (NNW) 2,038 6.8 -16.2°
Maximum altitude 06:02:21 17° 346° (NNW) 1,936 6.8 -16.0°
Drops below altitude 10° 06:05:40 10° 26° (NNE) 2,285 7.6 -15.5°
Sets 06:08:51 0° 47° (NE) 3,140 8.6 -15.0°
